CST,Max TemperatureF,Mean TemperatureF,Min TemperatureF,Max Dew PointF,MeanDew PointF,Min DewpointF,Max Humidity, Mean Humidity, Min Humidity, Max Sea Level PressureIn, Mean Sea Level PressureIn, Min Sea Level PressureIn, Max VisibilityMiles, Mean VisibilityMiles, Min VisibilityMiles, Max Wind SpeedMPH, Mean Wind SpeedMPH, Max Gust SpeedMPH,PrecipitationIn, CloudCover, Events, WindDirDegrees
2012-1-1,30,24,17,27,18,10,93,79,73,30.34,30.08,29.83,10,9,3,31,23,43,0.00,7,Snow,308
2012-1-2,19,14,10,10,8,5,85,75,63,30.51,30.45,30.34,10,10,10,26,15,34,0.00,2,,313
2012-1-3,26,17,8,21,12,7,93,82,68,30.41,30.08,29.83,10,10,10,14,5,22,0.00,0,,161
2012-1-4,39,31,23,32,26,21,100,87,70,30.09,30.01,29.90,10,10,10,13,8,17,0.00,0,,273
2012-1-5,53,38,24,36,29,23,100,75,47,29.93,29.75,29.62,10,10,10,9,3,,0.00,0,,241
2012-1-6,44,40,37,28,26,21,70,58,42,29.85,29.74,29.63,10,10,10,21,11,28,0.00,2,,293
2012-1-7,39,31,23,27,23,19,93,73,56,30.17,30.07,29.91,10,10,10,18,9,29,0.00,4,,276
2012-1-8,41,29,17,27,22,18,100,79,49,30.25,30.20,30.14,10,10,10,6,2,,0.00,1,,222
2012-1-9,48,39,30,27,24,19,75,58,43,30.03,29.92,29.87,10,10,10,15,9,21,0.00,0,,259
2012-1-10,51,38,26,30,27,25,93,70,41,29.95,29.80,29.64,10,10,7,8,3,,0.00,0,,229
2012-1-11,39,24,8,36,19,1,100,82,67,29.92,29.77,29.60,10,9,2,26,13,38,0.00,6,Rain-Snow,318
2012-1-12,12,9,6,7,3,1,85,77,73,29.90,29.87,29.83,10,9,3,24,18,32,0.00,8,Snow,327
2012-1-13,10,6,1,3,1,-2,92,81,67,29.99,29.96,29.90,10,10,10,13,8,18,0.00,5,,307
2012-1-14,23,14,6,21,11,1,100,89,73,30.03,29.98,29.95,10,8,1,7,2,,0.00,7,Snow,140
2012-1-15,39,26,12,28,21,10,100,81,56,30.05,29.84,29.67,10,9,0,15,5,25,0.00,1,Fog,141
2012-1-16,30,24,17,27,16,10,100,78,59,29.96,29.83,29.69,10,10,10,18,9,25,0.00,1,,337
2012-1-17,12,8,1,7,0,-6,85,70,48,30.26,30.15,30.00,10,9,4,20,15,25,0.00,2,Snow,321
2012-1-18,24,11,-2,16,4,-6,92,79,59,30.18,29.88,29.66,10,10,2,21,6,33,0.00,1,Snow,176
2012-1-19,32,9,-14,-15,-18,-20,77,59,12,30.17,30.10,29.99,10,10,10,15,10,25,0.00,0,,295
2012-1-20,8,3,-2,3,-3,-15,92,74,51,30.17,30.11,30.06,10,7,2,8,3,,0.01,7,Snow,102
2012-1-21,15,3,-9,16,-1,-11,100,88,73,30.22,30.07,29.82,10,10,5,17,3,26,0.00,2,Snow,147
2012-1-22,24,22,19,25,21,19,100,98,93,29.68,29.58,29.53,7,4,1,16,10,22,0.00,8,,113
2012-1-23,24,20,17,23,20,16,100,95,86,29.90,29.66,29.51,10,5,2,20,10,26,0.01,8,Snow,306
2012-1-24,21,18,15,21,17,14,100,92,80,30.25,30.15,29.94,10,9,5,12,6,20,0.00,6,,285
2012-1-25,28,24,21,28,24,21,100,96,93,30.23,30.08,29.88,7,4,2,9,3,16,0.00,7,Snow,160
2012-1-26,37,30,24,30,26,21,100,85,65,29.79,29.73,29.69,10,8,2,21,7,29,0.00,1,,271
2012-1-27,33,26,19,34,24,18,100,87,69,29.89,29.76,29.69,10,8,0,23,7,39,0.06,5,Rain-Snow,243
2012-1-28,26,20,15,19,13,10,93,73,59,29.99,29.95,29.91,10,10,2,16,10,24,0.00,2,Snow,280
2012-1-29,19,12,5,19,8,3,100,81,62,30.17,30.10,29.97,10,10,7,10,6,,0.00,1,Snow,303
2012-1-30,42,30,17,32,24,16,100,84,61,29.85,29.67,29.62,10,10,10,14,7,,0.00,2,,129
2012-1-31,39,31,23,36,30,23,100,94,81,29.94,29.70,29.53,10,8,5,15,6,22,0.00,4,,284